CAPE
0 0 0 0 0 0 2 3 0 0 0 1 0 0 2 1 0 0 0 0 0 11 58 0 0 0 0 283 249 377 381 57 0 0 0 0 0 0 0 0 672 987 1082 1241 1573
0 0 0 0 0 2 3 3 1 0 0 0 0 1 1 1 0 0 0 0 0 42 0 0 0 0 0 0 136 468 209 3 0 0 0 0 0 0 0 0 61 841 1189 1591 1553
1 2 2 0 0 2 6 7 2 2 0 0 0 0 1 0 0 0 0 0 0 6 0 0 0 0 0 0 67 105 29 1 0 0 0 0 0 0 0 0 0 0 1291 1672 1591
2 2 0 0 0 2 4 4 3 0 0 0 0 0 0 0 0 0 102 0 28 0 0 0 0 0 0 0 0 0 0 0 0 0 0 0 0 0 0 0 0 0 1206 1691 1671
2 1 1 1 1 2 1 2 2 1 0 0 0 1 0 0 0 0 36 17 0 0 0 0 0 0 0 0 0 0 0 0 0 0 0 0 0 0 0 0 0 0 858 1597 1687
2 1 1 0 0 1 2 3 4 0 1 0 0 0 0 0 0 0 0 0 0 0 0 0 0 0 0 0 0 0 0 0 0 0 0 0 0 0 0 0 0 168 766 1309 1633
2 1 0 0 0 0 1 1 0 0 0 0 0 0 0 0 0 0 0 0 0 0 0 0 0 0 0 0 0 0 0 0 0 0 0 0 0 0 0 0 0 252 1069 1362 1557
1 1 0 0 0 0 0 0 0 0 0 0 0 0 0 0 0 0 0 0 0 0 0 0 0 0 0 0 0 0 0 0 0 0 0 0 0 0 0 0 0 133 735 1228 1486
1 0 0 0 0 0 0 0 0 0 0 0 0 0 0 0 0 0 0 0 0 0 0 0 0 0 0 0 0 0 0 0 0 0 0 0 0 0 0 63 118 56 600 911 1178
0 0 0 0 0 0 0 0 0 0 0 0 0 0 0 0 0 0 0 0 0 0 0 0 0 0 0 0 0 0 0 0 0 0 0 0 0 0 0 4 165 294 329 501 705
0 0 0 0 0 0 0 0 0 0 0 0 0 0 0 0 0 0 0 0 0 0 0 0 0 0 0 0 0 0 0 0 0 0 0 0 0 0 0 0 0 1 202 360 448
1 0 0 0 0 0 0 0 0 0 0 0 0 0 0 0 0 0 0 0 0 0 0 0 0 0 0 0 0 0 0 0 0 0 0 0 0 0 0 0 0 0 0 66 299
0 0 0 0 0 0 0 0 0 0 0 0 0 0 0 0 0 0 0 0 0 0 0 0 0 0 0 0 0 0 0 0 0 0 0 0 0 0 0 0 0 0 0 0 34
0 0 0 0 0 0 0 0 0 0 0 0 0 0 0 0 0 0 0 0 0 0 0 0 0 0 0 0 0 0 0 0 0 0 0 0 0 0 0 0 0 0 0 0 0
0 0 0 0 0 0 0 0 0 0 0 0 0 0 0 0 0 0 0 0 0 0 0 0 0 0 0 0 0 0 0 0 0 0 0 0 0 0 0 0 0 0 0 0 0
0 0 0 0 0 0 0 0 0 0 0 0 0 0 0 0 0 0 0 0 0 0 0 0 0 0 0 0 0 0 0 0 0 0 0 0 0 0 0 0 0 0 0 0 0
0 0 0 0 0 0 0 0 0 0 0 0 0 0 0 0 0 0 0 0 0 0 0 0 0 0 0 0 0 0 0 0 0 0 0 0 0 0 0 0 0 0 0 0 0
0 0 0 0 0 0 0 0 0 0 0 0 0 0 0 0 0 0 0 0 0 0 0 0 0 0 0 0 0 0 0 0 0 0 0 0 0 0 0 0 0 0 0 0 9
0 0 0 0 0 0 0 0 0 0 0 0 0 0 0 0 0 0 0 0 0 0 0 0 0 0 0 0 0 0 0 0 0 0 0 0 0 0 0 0 0 0 0 0 101
0 0 0 0 0 0 0 0 0 0 0 0 0 0 0 0 0 0 0 0 0 0 0 0 0 0 0 0 0 0 0 0 0 0 0 0 0 0 0 0 0 0 0 22 371
0 0 0 0 0 0 0 0 0 0 0 0 0 0 0 0 0 0 0 0 0 0 0 0 0 0 0 0 0 0 0 0 0 0 0 0 0 0 0 0 40 110 184 395 465
0 0 0 0 0 0 0 0 0 0 0 0 0 0 0 0 0 0 0 0 0 0 0 0 0 0 0 0 0 0 0 0 0 0 0 0 0 0 0 4 48 215 158 138 357
0 0 0 0 0 0 0 0 0 0 0 0 0 0 0 0 0 0 0 0 0 0 0 0 0 0 0 0 0 0 0 0 0 0 0 0 0 0 0 0 0 8 0 31 171
0 0 0 0 0 0 0 0 0 0 0 0 0 0 0 0 0 0 0 0 0 0 0 0 0 0 0 0 0 0 0 0 0 0 0 0 0 0 0 0 8 30 16 29 157
0 0 0 0 0 0 0 0 0 0 0 0 0 0 0 0 0 0 0 0 0 0 0 0 0 0 0 0 0 0 0 0 0 0 0 0 0 0 0 34 24 0 8 50 83
0 0 0 0 0 0 0 0 0 0 0 0 0 0 0 0 0 0 0 0 0 0 0 0 0 0 0 0 0 0 0 0 0 0 0 0 0 54 83 66 0 0 21 63 77
0 0 0 0 0 0 0 0 0 0 0 0 0 0 0 0 0 0 0 0 0 0 0 0 0 0 0 0 0 0 0 0 0 4 26 48 38 55 154 15 0 17 113 137 39
CIN
0 0 0 0 0 0 0 0 0 0 0 0 0 0 0 0 0 0 0 0 0 -184 -454 0 0 0 0 -205 -266 -229 -69 -89 0 0 0 0 0 0 0 0 -128 -121 -140 -203 -333
0 0 0 0 0 0 0 0 0 0 0 0 0 0 0 0 0 0 0 0 0 -836 0 0 0 0 0 0 -216 -101 -83 -149 0 0 0 0 0 0 0 0 -55 -130 -333 -347 -390
0 0 0 0 0 0 0 0 0 0 0 0 0 0 0 0 0 0 0 0 0 -236 0 0 0 0 0 0 -229 -216 -128 -19 0 0 0 0 0 0 0 0 0 -1 -225 -366 -393
0 0 0 0 0 0 0 0 0 0 0 0 0 0 0 0 0 0 -855 0 -891 0 0 0 0 0 0 0 0 0 0 0 0 0 0 0 0 0 0 0 0 0 -239 -344 -395
0 0 0 0 0 0 0 0 0 0 0 0 0 0 0 0 0 0 -567 -569 0 0 0 0 0 0 0 0 0 0 0 0 0 0 0 0 0 0 0 0 0 0 -318 -356 -359
0 0 0 0 0 0 0 0 0 0 0 0 0 0 0 0 0 0 0 0 0 0 0 0 0 0 0 0 0 0 0 0 0 0 0 0 0 0 0 0 0 -292 -286 -342 -355
0 0 0 0 0 0 0 0 0 0 0 0 0 0 0 0 0 0 0 0 0 0 0 0 0 0 0 0 0 0 0 0 0 0 0 0 0 0 0 0 0 -259 -302 -354 -365
0 0 0 0 0 0 0 0 0 0 0 0 0 0 0 0 0 0 0 0 0 0 0 0 0 0 0 0 0 0 0 0 0 0 0 0 0 0 0 0 0 -350 -318 -349 -354
0 0 0 0 0 0 0 0 0 0 0 0 0 0 0 0 0 0 0 0 0 0 0 0 0 0 0 0 0 0 0 0 0 0 0 0 0 0 0 -270 -322 -378 -345 -320 -337
0 0 0 0 0 0 0 0 0 0 0 0 0 0 0 0 0 0 0 0 0 0 0 0 0 0 0 0 0 0 0 0 0 0 0 0 0 0 0 -36 -273 -304 -370 -380 -387
0 0 0 0 0 0 0 0 0 0 0 0 0 0 0 0 0 0 0 0 0 0 0 0 0 0 0 0 0 0 0 0 0 0 0 0 0 0 0 0 0 -26 -324 -347 -430
0 0 0 0 0 0 0 0 0 0 0 0 0 0 0 0 0 0 0 0 0 0 0 0 0 0 0 0 0 0 0 0 0 0 0 0 0 0 0 0 0 0 0 -392 -370
0 0 0 0 0 0 0 0 0 0 0 0 0 0 0 0 0 0 0 0 0 0 0 0 0 0 0 0 0 0 0 0 0 0 0 0 0 0 0 0 0 0 0 0 -421
0 0 0 0 0 0 0 0 0 0 0 0 0 0 0 0 0 0 0 0 0 0 0 0 0 0 0 0 0 0 0 0 0 0 0 0 0 0 0 0 0 0 0 0 0
0 0 0 0 0 0 0 0 0 0 0 0 0 0 0 0 0 0 0 0 0 0 0 0 0 0 0 0 0 0 0 0 0 0 0 0 0 0 0 0 0 0 0 0 0
0 0 0 0 0 0 0 0 0 0 0 0 0 0 0 0 0 0 0 0 0 0 0 0 0 0 0 0 0 0 0 0 0 0 0 0 0 0 0 0 0 0 0 0 0
0 0 0 0 0 0 0 0 0 0 0 0 0 0 0 0 0 0 0 0 0 0 0 0 0 0 0 0 0 0 0 0 0 0 0 0 0 0 0 0 0 0 0 0 0
0 0 0 0 0 0 0 0 0 0 0 0 0 0 0 0 0 0 0 0 0 0 0 0 0 0 0 0 0 0 0 0 0 0 0 0 0 0 0 0 0 0 0 0 -170
0 0 0 0 0 0 0 0 0 0 0 0 0 0 0 0 0 0 0 0 0 0 0 0 0 0 0 0 0 0 0 0 0 0 0 0 0 0 0 0 0 0 0 0 -183
0 0 0 0 0 0 0 0 0 0 0 0 0 0 0 0 0 0 0 0 0 0 0 0 0 0 0 0 0 0 0 0 0 0 0 0 0 0 0 0 0 0 0 -119 -139
0 0 0 0 0 0 0 0 0 0 0 0 0 0 0 0 0 0 0 0 0 0 0 0 0 0 0 0 0 0 0 0 0 0 0 0 0 0 0 0 -110 -92 -90 -97 -97
0 0 0 0 0 0 0 0 0 0 0 0 0 0 0 0 0 0 0 0 0 0 0 0 0 0 0 0 0 0 0 0 0 0 0 0 0 0 0 -26 -150 -61 -94 -111 -82
0 0 0 0 0 0 0 0 0 0 0 0 0 0 0 0 0 0 0 0 0 0 0 0 0 0 0 0 0 0 0 0 0 0 0 0 0 0 0 0 0 -76 0 -88 -83
0 0 0 0 0 0 0 0 0 0 0 0 0 0 0 0 0 0 0 0 0 0 0 0 0 0 0 0 0 0 0 0 0 0 0 0 0 0 0 0 -23 -52 -75 -83 -68
0 0 0 0 0 0 0 0 0 0 0 0 0 0 0 0 0 0 0 0 0 0 0 0 0 0 0 0 0 0 0 0 0 0 0 0 0 0 0 -71 -86 0 -130 -82 -72
0 0 0 0 0 0 0 0 0 0 0 0 0 0 0 0 0 0 0 0 0 0 0 0 0 0 0 0 0 0 0 0 0 0 0 0 0 -47 -78 -85 0 0 -83 -68 -57
0 0 0 0 0 0 0 0 0 0 0 0 0 0 0 0 0 0 0 0 0 0 0 0 0 0 0 0 0 0 0 0 0 -9 -20 -7 -16 -56 -38 -25 0 -73 -37 -19 -30
Wind_Speed
20 20 19 18 18 17 18 18 17 16 15 15 13 12 11 11 9 4 7 4 5 12 11 13 4 4 5 4 4 2 2 1 4 6 8 9 10 6 8 8 4 6 3 5 24
21 20 20 20 19 18 17 18 18 16 14 13 12 12 10 8 3 7 7 5 12 15 11 13 8 9 4 2 3 3 2 1 2 10 8 10 6 10 7 12 4 5 7 16 23
20 20 20 21 21 20 19 18 18 16 14 12 11 10 8 5 4 1 3 10 17 11 9 4 10 5 3 2 4 3 3 2 9 8 5 12 11 6 7 10 13 12 13 19 21
20 21 21 22 22 22 21 19 18 17 14 12 10 8 6 3 3 4 6 14 16 6 10 8 7 5 3 3 4 4 6 5 7 7 7 11 11 11 6 11 17 14 15 22 24
22 22 23 22 22 22 22 20 18 16 14 10 7 6 3 2 3 3 10 12 11 4 6 6 7 4 3 2 2 6 5 5 8 12 12 12 11 7 9 16 16 10 14 22 23
22 23 23 22 22 21 21 19 16 13 9 6 5 3 3 2 3 8 11 10 9 6 4 5 6 4 2 2 3 1 8 13 9 10 5 5 5 2 16 20 15 4 11 16 20
23 23 24 23 22 21 21 18 14 8 5 5 5 4 1 3 3 7 9 3 9 4 4 4 2 3 2 3 2 3 9 6 2 5 4 6 9 13 17 18 13 3 5 10 16
23 24 24 24 22 20 20 17 10 3 5 6 7 2 3 3 6 7 4 4 4 4 1 1 2 2 1 1 2 3 0 5 4 6 3 6 5 11 16 13 15 14 2 8 14
24 24 25 25 24 20 17 12 7 7 8 9 2 2 4 2 3 3 6 4 5 2 0 4 2 3 1 2 1 4 5 7 5 5 5 6 4 12 14 14 14 15 10 3 5
24 25 25 26 24 20 16 4 5 4 4 4 2 2 1 1 2 3 3 4 3 5 4 2 3 1 2 1 4 7 5 4 7 2 4 8 6 7 11 12 13 13 13 10 5
23 25 26 26 25 19 6 3 2 1 2 2 3 4 4 7 4 2 4 6 2 3 1 3 3 2 2 2 2 1 4 8 4 2 2 7 8 7 9 10 13 13 12 12 11
23 24 26 27 24 19 2 6 3 3 7 2 5 7 6 3 2 2 7 3 2 3 2 2 1 3 2 2 2 2 4 3 8 2 3 4 5 3 6 8 10 13 12 13 13
24 23 25 27 26 3 4 6 4 5 3 5 4 3 0 6 2 5 9 3 3 3 3 1 3 4 3 4 3 1 3 2 4 7 3 3 3 2 3 5 8 10 12 12 13
25 24 22 31 1 4 2 3 6 5 2 2 1 3 4 2 1 3 6 3 2 1 5 2 1 2 4 4 2 0 2 7 8 5 6 4 6 4 2 2 5 10 14 16 16
25 23 19 11 4 2 4 8 1 4 2 1 2 2 2 2 1 2 2 2 5 4 3 3 2 2 5 3 2 1 4 5 6 6 2 3 5 3 4 5 3 7 9 12 15
28 24 18 2 2 4 8 7 3 3 2 2 2 2 1 3 3 2 2 4 2 3 2 2 2 2 3 1 2 6 3 2 2 1 5 3 4 3 2 2 6 9 10 11 13
30 26 8 1 4 6 7 1 2 3 1 3 3 4 2 4 2 4 2 3 1 3 2 2 2 1 2 1 2 5 6 3 2 4 2 4 5 4 2 3 3 10 12 12 12
31 21 2 3 5 6 2 1 3 1 2 2 3 1 3 5 3 3 3 4 4 2 3 3 5 2 5 4 4 4 4 3 5 3 5 2 5 3 4 2 2 6 9 10 12
25 4 2 4 0 2 1 2 1 1 2 4 1 2 2 2 3 2 4 3 3 1 1 3 3 1 4 4 2 3 2 2 2 1 4 1 3 7 3 6 8 10 9 10 11
6 5 3 8 0 1 1 1 2 2 4 2 1 1 1 3 1 2 3 3 2 3 3 3 2 1 3 4 8 5 5 1 2 4 5 3 5 9 7 6 7 9 10 11 11
2 4 2 8 2 3 1 1 3 3 2 2 2 3 2 1 2 2 3 3 4 2 3 3 3 3 3 1 1 4 3 4 0 3 5 6 4 2 9 9 10 11 11 10 11
4 3 4 5 1 1 1 1 4 4 4 2 1 2 2 2 2 3 3 3 8 2 0 2 1 3 1 1 3 1 1 1 4 2 5 7 10 5 6 7 8 11 10 10 11
5 4 3 3 2 2 0 0 2 5 4 5 2 3 1 3 3 2 2 2 5 2 2 4 1 3 3 5 3 4 4 3 2 3 12 11 7 2 7 8 9 11 12 11 13
3 3 2 4 2 1 1 1 1 3 1 3 2 1 3 2 3 5 4 1 4 3 5 3 3 5 7 7 3 6 6 7 8 8 13 14 20 19 15 10 12 10 13 13 12
2 3 3 3 3 3 1 2 1 2 2 5 2 4 0 3 2 2 1 1 1 1 2 2 5 5 13 10 8 12 15 16 14 17 11 17 20 15 11 7 11 10 11 12 12
3 3 2 3 4 3 1 2 1 3 3 2 2 5 1 2 2 6 3 2 2 2 3 1 7 2 11 13 15 18 18 19 18 17 18 18 16 5 3 7 7 10 12 15 16
2 0 3 2 3 3 1 3 3 2 2 1 5 4 2 3 7 6 5 2 3 3 3 3 2 2 7 5 7 10 17 13 9 8 7 10 13 3 11 8 8 10 13 17 19
Wind_Direction
346 342 338 335 333 328 327 325 321 319 316 314 315 316 320 325 307 169 231 201 180 157 114 132 127 143 170 199 221 185 269 3 20 336 328 331 335 327 305 293 225 193 173 102 143
338 334 331 328 325 321 318 318 319 315 312 309 309 312 318 327 261 238 245 183 144 150 133 151 155 158 181 192 171 231 290 278 298 314 314 317 319 318 316 327 256 194 104 133 148
331 327 325 324 323 319 316 313 313 311 308 303 304 306 310 311 258 220 35 172 163 171 151 137 141 164 163 190 169 160 247 260 298 283 287 309 309 299 305 303 318 286 167 159 164
327 326 324 322 322 321 317 314 312 308 302 300 299 296 299 229 129 1 331 168 169 168 142 130 148 164 158 200 173 250 248 255 288 295 309 301 303 307 285 297 319 309 174 169 179
330 327 323 323 322 320 316 311 309 303 297 293 285 274 233 194 255 76 102 120 145 184 162 153 166 160 180 195 208 232 267 270 269 286 278 280 270 280 339 330 317 311 175 184 186
330 326 324 325 324 323 317 312 308 301 289 271 243 229 214 140 93 142 132 138 156 169 167 177 185 197 141 224 244 303 280 284 292 304 236 272 350 349 333 333 332 275 202 197 190
329 327 326 327 328 327 322 320 315 296 255 220 199 221 189 112 92 148 155 161 162 174 162 207 199 205 155 271 336 286 301 318 62 356 351 327 77 10 342 340 356 5 197 194 198
329 328 328 329 331 334 328 327 328 95 147 164 172 237 247 122 124 145 185 128 184 213 243 168 189 112 311 319 338 336 316 358 38 345 7 314 22 356 355 352 6 9 229 200 203
330 330 329 330 332 337 331 327 70 104 124 145 189 333 119 145 217 145 173 140 147 125 147 90 72 53 143 316 279 33 343 329 330 308 337 4 360 343 356 10 20 16 7 268 225
330 330 331 330 333 336 327 242 93 121 159 224 235 224 178 85 327 110 165 149 115 125 113 72 66 187 117 253 347 323 326 317 281 282 316 91 58 357 1 20 26 24 20 26 8
332 330 330 330 333 333 338 197 352 120 38 329 320 281 314 310 248 162 147 135 115 78 134 46 225 233 331 227 275 274 272 288 289 324 264 110 97 36 359 24 13 19 17 19 19
333 332 332 327 330 323 268 65 73 328 314 274 255 270 262 279 302 120 164 130 135 129 136 163 323 336 171 195 204 208 262 255 294 311 267 147 143 103 27 15 7 358 7 3 359
333 334 331 326 323 -0 12 95 7 165 271 299 228 249 219 180 188 183 181 137 133 161 170 194 358 339 136 103 155 111 308 326 302 326 122 316 206 146 58 353 356 5 356 7 10
333 335 337 325 357 341 82 359 328 198 336 30 146 153 147 223 148 203 196 142 130 126 153 238 27 66 93 73 259 316 308 275 288 278 299 338 299 206 219 261 7 8 357 351 356
332 335 336 332 315 290 356 331 266 209 116 31 93 88 131 233 306 90 162 147 169 154 205 74 130 89 49 54 219 315 317 287 289 240 283 125 261 136 206 206 26 8 1 354 346
329 332 331 205 221 287 325 313 198 242 147 75 14 350 173 27 13 18 130 64 59 116 60 21 2 39 348 307 4 314 232 79 96 200 237 96 313 252 195 1 326 348 3 356 350
329 328 314 262 352 338 318 230 220 225 331 19 12 14 92 8 49 20 97 62 224 192 85 68 50 309 2 335 90 -0 339 320 198 203 303 107 266 302 212 229 314 329 340 350 353
328 321 213 243 307 316 278 182 228 84 18 5 19 97 83 359 58 45 95 108 63 75 115 187 181 35 353 35 339 39 347 326 292 261 317 164 248 141 310 195 294 325 333 341 356
320 333 298 354 97 281 349 209 125 145 306 321 40 103 76 41 353 97 57 68 33 44 185 175 149 18 45 41 300 110 56 10 244 137 256 316 252 245 219 232 276 313 322 337 345
332 327 283 346 167 335 83 181 228 260 320 225 115 344 116 11 88 64 72 17 53 19 275 150 257 104 128 189 63 69 128 213 55 299 288 252 273 270 289 306 309 316 325 333 337
343 327 44 344 231 43 146 242 287 282 317 221 152 130 120 115 54 71 43 72 7 52 48 138 269 131 243 68 130 160 137 72 58 279 292 295 246 276 297 313 310 319 325 327 331
339 296 13 317 355 33 148 260 338 336 8 23 144 112 143 132 107 113 120 24 346 270 76 67 183 233 334 38 288 271 118 113 335 274 246 284 280 287 266 300 304 307 316 323 325
343 292 334 309 219 175 227 261 316 354 1 15 76 19 85 127 129 128 135 82 18 67 158 175 201 253 204 166 163 230 177 126 113 236 253 276 278 197 294 290 291 299 315 321 321
307 317 330 54 34 33 14 27 328 358 97 350 329 148 122 114 35 150 161 165 4 87 73 129 153 259 272 291 292 236 225 234 272 266 274 253 283 290 301 307 320 317 317 317 313
6 40 11 352 70 17 307 340 312 353 36 22 111 43 79 145 136 172 190 203 163 56 107 217 248 232 267 251 229 259 263 270 254 253 253 283 292 292 310 305 317 325 324 319 318
353 349 4 302 302 278 299 170 206 328 305 48 48 347 353 197 244 188 186 224 263 145 207 112 274 240 265 264 258 262 258 262 262 260 255 275 283 316 278 315 338 352 338 330 325
21 171 287 13 324 261 206 163 134 328 198 332 351 294 237 58 317 305 241 298 322 288 198 251 234 252 278 299 254 249 252 251 244 249 267 276 308 319 307 330 357 347 344 340 326